Retour au catalogue

ONEWEB-0427

ActifCommunicationsPO
NORAD 50499·PAYLOAD·🇬🇧 United Kingdom

Lancé Dec 27, 2021 depuis Baikonur Cosmodrome

Loading…

Prochains Passages (prochaines 24 heures)

TLE

FraisSource: CelesTrak SupGP

Époque: Sep 14, 2026, 23:33 UTC

1 50499C 21132AG  26257.98139307  .00001388  00000+0  35239-2 0  2578
2 50499  87.9167 317.5995 0002009 105.4151 342.5419 13.18682398    12

Suivez ONEWEB-0427 en temps réel avec AllMySat

Download on the App Store